#Datum;Uhrzeit;WR;Pac;DaySum;Status;WR;Pac;DaySum;Status;Pdc1;Udc;Temp;WR;Pac;DaySum;Status;Pdc1;Udc;Temp;WR;Pac;DaySum;Status;Pdc1;Udc;Temp;WR;Pac;DaySum;Status;Pdc1;Pdc2;Udc1;Udc2;Temp;WR;Pac;DaySum;Status;Pdc1;Pdc2;Udc1;Udc2;Temp;WR;Pac;DaySum;Status;Pdc1;Udc;Temp;WR;Pac;DaySum;Status;Pdc1;Udc;Temp;WR;Pac;DaySum;Status;Pdc1;Udc;Temp
02.11.20;23:55:00;1;326;13902;0;2;0;7004;0;0;0;0;3;0;4437;0;0;0;0;4;0;6006;0;0;0;0;5;0;0;0;0;0;0;0;0;6;0;10559;0;0;0;0;0;0;7;0;8248;0;0;0;0;8;0;3932;0;0;0;0;9;0;4452;0;0;0;0
02.11.20;23:50:00;1;275;13876;0;2;0;7004;0;0;0;0;3;0;4437;0;0;0;0;4;0;6006;0;0;0;0;5;0;0;0;0;0;0;0;0;6;0;10559;0;0;0;0;0;0;7;0;8248;0;0;0;0;8;0;3932;0;0;0;0;9;0;4452;0;0;0;0
02.11.20;23:45:00;1;217;13854;0;2;0;7004;0;0;0;0;3;0;4437;0;0;0;0;4;0;6006;0;0;0;0;5;0;0;0;0;0;0;0;0;6;0;10559;0;0;0;0;0;0;7;0;8248;0;0;0;0;8;0;3932;0;0;0;0;9;0;4452;0;0;0;0
02.11.20;23:40:00;1;255;13836;0;2;0;7004;0;0;0;0;3;0;4437;0;0;0;0;4;0;6006;0;0;0;0;5;0;0;0;0;0;0;0;0;6;0;10559;0;0;0;0;0;0;7;0;8248;0;0;0;0;8;0;3932;0;0;0;0;9;0;4452;0;0;0;0
02.11.20;23:35:00;1;219;13814;0;2;0;7004;0;0;0;0;3;0;4437;0;0;0;0;4;0;6006;0;0;0;0;5;0;0;0;0;0;0;0;0;6;0;10559;0;0;0;0;0;0;7;0;8248;0;0;0;0;8;0;3932;0;0;0;0;9;0;4452;0;0;0;0
02.11.20;23:30:00;1;226;13795;0;2;0;7004;0;0;0;0;3;0;4437;0;0;0;0;4;0;6006;0;0;0;0;5;0;0;0;0;0;0;0;0;6;0;10559;0;0;0;0;0;0;7;0;8248;0;0;0;0;8;0;3932;0;0;0;0;9;0;4452;0;0;0;0
02.11.20;23:25:00;1;220;13777;0;2;0;7004;0;0;0;0;3;0;4437;0;0;0;0;4;0;6006;0;0;0;0;5;0;0;0;0;0;0;0;0;6;0;10559;0;0;0;0;0;0;7;0;8248;0;0;0;0;8;0;3932;0;0;0;0;9;0;4452;0;0;0;0
02.11.20;23:20:00;1;218;13758;0;2;0;7004;0;0;0;0;3;0;4437;0;0;0;0;4;0;6006;0;0;0;0;5;0;0;0;0;0;0;0;0;6;0;10559;0;0;0;0;0;0;7;0;8248;0;0;0;0;8;0;3932;0;0;0;0;9;0;4452;0;0;0;0
02.11.20;23:15:00;1;288;13740;0;2;0;7004;0;0;0;0;3;0;4437;0;0;0;0;4;0;6006;0;0;0;0;5;0;0;0;0;0;0;0;0;6;0;10559;0;0;0;0;0;0;7;0;8248;0;0;0;0;8;0;3932;0;0;0;0;9;0;4452;0;0;0;0
02.11.20;23:10:00;1;319;13717;0;2;0;7004;0;0;0;0;3;0;4437;0;0;0;0;4;0;6006;0;0;0;0;5;0;0;0;0;0;0;0;0;6;0;10559;0;0;0;0;0;0;7;0;8248;0;0;0;0;8;0;3932;0;0;0;0;9;0;4452;0;0;0;0
02.11.20;23:05:00;1;335;13689;0;2;0;7004;0;0;0;0;3;0;4437;0;0;0;0;4;0;6006;0;0;0;0;5;0;0;0;0;0;0;0;0;6;0;10559;0;0;0;0;0;0;7;0;8248;0;0;0;0;8;0;3932;0;0;0;0;9;0;4452;0;0;0;0
02.11.20;23:00:00;1;346;13661;0;2;0;7004;0;0;0;0;3;0;4437;0;0;0;0;4;0;6006;0;0;0;0;5;0;0;0;0;0;0;0;0;6;0;10559;0;0;0;0;0;0;7;0;8248;0;0;0;0;8;0;3932;0;0;0;0;9;0;4452;0;0;0;0
02.11.20;22:55:00;1;342;13632;0;2;0;7004;0;0;0;0;3;0;4437;0;0;0;0;4;0;6006;0;0;0;0;5;0;0;0;0;0;0;0;0;6;0;10559;2;0;0;0;0;0;7;0;8248;0;0;0;0;8;0;3932;0;0;0;0;9;0;4452;0;0;0;0
02.11.20;22:50:00;1;304;13604;0;2;0;7004;0;0;0;0;3;0;4437;0;0;0;0;4;0;6006;0;0;0;0;5;0;0;0;0;0;0;0;0;6;0;10559;2;0;0;0;0;0;7;0;8248;0;0;0;0;8;0;3932;0;0;0;0;9;0;4452;0;0;0;0
02.11.20;22:45:00;1;416;13579;0;2;0;7004;0;0;0;0;3;0;4437;0;0;0;0;4;0;6006;0;0;0;0;5;0;0;0;0;0;0;0;0;6;0;10559;2;0;0;0;0;0;7;0;8248;0;0;0;0;8;0;3932;0;0;0;0;9;0;4452;0;0;0;0
02.11.20;22:40:00;1;469;13544;0;2;0;7004;0;0;0;0;3;0;4437;0;0;0;0;4;0;6006;0;0;0;0;5;0;0;0;0;0;0;0;0;6;0;10559;2;0;0;0;0;0;7;0;8248;0;0;0;0;8;0;3932;0;0;0;0;9;0;4452;0;0;0;0
02.11.20;22:35:00;1;451;13506;0;2;0;7004;0;0;0;0;3;0;4437;0;0;0;0;4;0;6006;0;0;0;0;5;0;0;0;0;0;0;0;0;6;0;10559;2;0;0;0;0;0;7;0;8248;0;0;0;0;8;0;3932;0;0;0;0;9;0;4452;0;0;0;0
02.11.20;22:30:00;1;420;13468;0;2;0;7004;0;0;0;0;3;0;4437;0;0;0;0;4;0;6006;0;0;0;0;5;0;0;0;0;0;0;0;0;6;0;10559;2;0;0;0;0;0;7;0;8248;0;0;0;0;8;0;3932;0;0;0;0;9;0;4452;0;0;0;0
02.11.20;22:25:00;1;468;13432;0;2;0;7004;0;0;0;0;3;0;4437;0;0;0;0;4;0;6006;0;0;0;0;5;0;0;0;0;0;0;0;0;6;0;10559;2;0;0;0;0;0;7;0;8248;0;0;0;0;8;0;3932;0;0;0;0;9;0;4452;0;0;0;0
02.11.20;22:20:00;1;539;13393;0;2;0;7004;0;0;0;0;3;0;4437;0;0;0;0;4;0;6006;0;0;0;0;5;0;0;0;0;0;0;0;0;6;0;10559;2;0;0;0;0;0;7;0;8248;0;0;0;0;8;0;3932;0;0;0;0;9;0;4452;0;0;0;0
02.11.20;22:15:00;1;586;13349;0;2;0;7004;0;0;0;0;3;0;4437;0;0;0;0;4;0;6006;0;0;0;0;5;0;0;0;0;0;0;0;0;6;0;10559;2;0;0;0;0;0;7;0;8248;0;0;0;0;8;0;3932;0;0;0;0;9;0;4452;0;0;0;0
02.11.20;22:10:00;1;606;13301;0;2;0;7004;0;0;0;0;3;0;4437;0;0;0;0;4;0;6006;0;0;0;0;5;0;0;0;0;0;0;0;0;6;0;10559;2;0;0;0;0;0;7;0;8248;0;0;0;0;8;0;3932;0;0;0;0;9;0;4452;0;0;0;0
02.11.20;22:05:00;1;581;13252;0;2;0;7004;0;0;0;0;3;0;4437;0;0;0;0;4;0;6006;0;0;0;0;5;0;0;0;0;0;0;0;0;6;0;10559;2;0;0;0;0;0;7;0;8248;0;0;0;0;8;0;3932;0;0;0;0;9;0;4452;0;0;0;0
02.11.20;22:00:00;1;610;13205;0;2;0;7004;0;0;0;0;3;0;4437;0;0;0;0;4;0;6006;0;0;0;0;5;0;0;0;0;0;0;0;0;6;0;10559;2;0;0;0;0;0;7;0;8248;0;0;0;0;8;0;3932;0;0;0;0;9;0;4452;0;0;0;0
02.11.20;21:55:00;1;580;13156;0;2;0;7004;0;0;0;0;3;0;4437;0;0;0;0;4;0;6006;0;0;0;0;5;0;0;0;0;0;0;0;0;6;0;10559;2;0;0;0;0;0;7;0;8248;0;0;0;0;8;0;3932;0;0;0;0;9;0;4452;0;0;0;0
02.11.20;21:50:00;1;608;13109;0;2;0;7004;0;0;0;0;3;0;4437;0;0;0;0;4;0;6006;0;0;0;0;5;0;0;0;0;0;0;0;0;6;0;10559;2;0;0;0;0;0;7;0;8248;0;0;0;0;8;0;3932;0;0;0;0;9;0;4452;0;0;0;0
02.11.20;21:45:00;1;498;13053;0;2;0;7004;0;0;0;0;3;0;4437;0;0;0;0;4;0;6006;0;0;0;0;5;0;0;0;0;0;0;0;0;6;0;10559;2;0;0;0;0;0;7;0;8248;0;0;0;0;8;0;3932;0;0;0;0;9;0;4452;0;0;0;0
02.11.20;21:40:00;1;500;13011;0;2;0;7004;0;0;0;0;3;0;4437;0;0;0;0;4;0;6006;0;0;0;0;5;0;0;0;0;0;0;0;0;6;0;10559;2;0;0;0;0;0;7;0;8248;0;0;0;0;8;0;3932;0;0;0;0;9;0;4452;0;0;0;0
02.11.20;21:35:00;1;466;12970;0;2;0;7004;0;0;0;0;3;0;4437;0;0;0;0;4;0;6006;0;0;0;0;5;0;0;0;0;0;0;0;0;6;0;10559;2;0;0;0;0;0;7;0;8248;0;0;0;0;8;0;3932;0;0;0;0;9;0;4452;0;0;0;0
02.11.20;21:30:00;1;428;12930;0;2;0;7004;0;0;0;0;3;0;4437;0;0;0;0;4;0;6006;0;0;0;0;5;0;0;0;0;0;0;0;0;6;0;10559;2;0;0;0;0;0;7;0;8248;0;0;0;0;8;0;3932;0;0;0;0;9;0;4452;0;0;0;0
02.11.20;21:25:00;1;500;12894;0;2;0;7004;0;0;0;0;3;0;4437;0;0;0;0;4;0;6006;0;0;0;0;5;0;0;0;0;0;0;0;0;6;0;10559;2;0;0;0;0;0;7;0;8248;0;0;0;0;8;0;3932;0;0;0;0;9;0;4452;0;0;0;0
02.11.20;21:20:00;1;483;12853;0;2;0;7004;0;0;0;0;3;0;4437;0;0;0;0;4;0;6006;0;0;0;0;5;0;0;0;0;0;0;0;0;6;0;10559;2;0;0;0;0;0;7;0;8248;0;0;0;0;8;0;3932;0;0;0;0;9;0;4452;0;0;0;0
02.11.20;21:15:00;1;502;12811;0;2;0;7004;0;0;0;0;3;0;4437;0;0;0;0;4;0;6006;0;0;0;0;5;0;0;0;0;0;0;0;0;6;0;10559;2;0;0;0;0;0;7;0;8248;0;0;0;0;8;0;3932;0;0;0;0;9;0;4452;0;0;0;0
02.11.20;21:10:00;1;1262;12769;0;2;0;7004;0;0;0;0;3;0;4437;0;0;0;0;4;0;6006;0;0;0;0;5;0;0;0;0;0;0;0;0;6;0;10559;2;0;0;0;0;0;7;0;8248;0;0;0;0;8;0;3932;0;0;0;0;9;0;4452;0;0;0;0
02.11.20;21:05:00;1;595;12677;0;2;0;7004;0;0;0;0;3;0;4437;0;0;0;0;4;0;6006;0;0;0;0;5;0;0;0;0;0;0;0;0;6;0;10559;2;0;0;0;0;0;7;0;8248;0;0;0;0;8;0;3932;0;0;0;0;9;0;4452;0;0;0;0
02.11.20;21:00:00;1;507;12631;0;2;0;7004;0;0;0;0;3;0;4437;0;0;0;0;4;0;6006;0;0;0;0;5;0;0;0;0;0;0;0;0;6;0;10559;2;0;0;0;0;0;7;0;8248;0;0;0;0;8;0;3932;0;0;0;0;9;0;4452;0;0;0;0
02.11.20;20:55:00;1;556;12589;0;2;0;7004;0;0;0;0;3;0;4437;0;0;0;0;4;0;6006;0;0;0;0;5;0;0;0;0;0;0;0;0;6;0;10559;2;0;0;0;0;0;7;0;8248;0;0;0;0;8;0;3932;0;0;0;0;9;0;4452;0;0;0;0
02.11.20;20:50:00;1;512;12542;0;2;0;7004;0;0;0;0;3;0;4437;0;0;0;0;4;0;6006;0;0;0;0;5;0;0;0;0;0;0;0;0;6;0;10559;2;0;0;0;0;0;7;0;8248;0;0;0;0;8;0;3932;0;0;0;0;9;0;4452;0;0;0;0
02.11.20;20:45:00;1;495;12499;0;2;0;7004;0;0;0;0;3;0;4437;0;0;0;0;4;0;6006;0;0;0;0;5;0;0;0;0;0;0;0;0;6;0;10559;2;0;0;0;0;0;7;0;8248;0;0;0;0;8;0;3932;0;0;0;0;9;0;4452;0;0;0;0
02.11.20;20:40:00;1;462;12458;0;2;0;7004;0;0;0;0;3;0;4437;0;0;0;0;4;0;6006;0;0;0;0;5;0;0;0;0;0;0;0;0;6;0;10559;2;0;0;0;0;0;7;0;8248;0;0;0;0;8;0;3932;0;0;0;0;9;0;4452;0;0;0;0
02.11.20;20:35:00;1;472;12419;0;2;0;7004;0;0;0;0;3;0;4437;0;0;0;0;4;0;6006;0;0;0;0;5;0;0;0;0;0;0;0;0;6;0;10559;2;0;0;0;0;0;7;0;8248;0;0;0;0;8;0;3932;0;0;0;0;9;0;4452;0;0;0;0
02.11.20;20:30:00;1;554;12380;0;2;0;7004;0;0;0;0;3;0;4437;0;0;0;0;4;0;6006;0;0;0;0;5;0;0;0;0;0;0;0;0;6;0;10559;2;0;0;0;0;0;7;0;8248;0;0;0;0;8;0;3932;0;0;0;0;9;0;4452;0;0;0;0
02.11.20;20:25:00;1;602;12335;0;2;0;7004;0;0;0;0;3;0;4437;0;0;0;0;4;0;6006;0;0;0;0;5;0;0;0;0;0;0;0;0;6;0;10559;2;0;0;0;0;0;7;0;8248;0;0;0;0;8;0;3932;0;0;0;0;9;0;4452;0;0;0;0
02.11.20;20:20:00;1;533;12285;0;2;0;7004;0;0;0;0;3;0;4437;0;0;0;0;4;0;6006;0;0;0;0;5;0;0;0;0;0;0;0;0;6;0;10559;2;0;0;0;0;0;7;0;8248;0;0;0;0;8;0;3932;0;0;0;0;9;0;4452;0;0;0;0
02.11.20;20:15:00;1;507;12238;0;2;0;7004;0;0;0;0;3;0;4437;0;0;0;0;4;0;6006;0;0;0;0;5;0;0;0;0;0;0;0;0;6;0;10559;2;0;0;0;0;0;7;0;8248;0;0;0;0;8;0;3932;0;0;0;0;9;0;4452;0;0;0;0
02.11.20;20:10:00;1;488;12195;0;2;0;7004;0;0;0;0;3;0;4437;0;0;0;0;4;0;6006;0;0;0;0;5;0;0;0;0;0;0;0;0;6;0;10559;2;0;0;0;0;0;7;0;8248;0;0;0;0;8;0;3932;0;0;0;0;9;0;4452;0;0;0;0
02.11.20;20:05:00;1;511;12154;0;2;0;7004;0;0;0;0;3;0;4437;0;0;0;0;4;0;6006;0;0;0;0;5;0;0;0;0;0;0;0;0;6;0;10559;2;0;0;0;0;0;7;0;8248;0;0;0;0;8;0;3932;0;0;0;0;9;0;4452;0;0;0;0
02.11.20;20:00:00;1;507;12112;0;2;0;7004;0;0;0;0;3;0;4437;0;0;0;0;4;0;6006;0;0;0;0;5;0;0;0;0;0;0;0;0;6;0;10559;2;0;0;0;0;0;7;0;8248;0;0;0;0;8;0;3932;0;0;0;0;9;0;4452;0;0;0;0
02.11.20;19:55:00;1;476;12068;0;2;0;7004;0;0;0;0;3;0;4437;0;0;0;0;4;0;6006;0;0;0;0;5;0;0;0;0;0;0;0;0;6;0;10559;2;0;0;0;0;0;7;0;8248;0;0;0;0;8;0;3932;0;0;0;0;9;0;4452;0;0;0;0
02.11.20;19:50:00;1;496;12028;0;2;0;7004;0;0;0;0;3;0;4437;0;0;0;0;4;0;6006;0;0;0;0;5;0;0;0;0;0;0;0;0;6;0;10559;2;0;0;0;0;0;7;0;8248;0;0;0;0;8;0;3932;0;0;0;0;9;0;4452;0;0;0;0
02.11.20;19:45:00;1;418;11989;0;2;0;7004;0;0;0;0;3;0;4437;0;0;0;0;4;0;6006;0;0;0;0;5;0;0;0;0;0;0;0;0;6;0;10559;2;0;0;0;0;0;7;0;8248;0;0;0;0;8;0;3932;0;0;0;0;9;0;4452;0;0;0;0
02.11.20;19:40:00;1;376;11950;0;2;0;7004;0;0;0;0;3;0;4437;0;0;0;0;4;0;6006;0;0;0;0;5;0;0;0;0;0;0;0;0;6;0;10559;2;0;0;0;0;0;7;0;8248;0;0;0;0;8;0;3932;0;0;0;0;9;0;4452;0;0;0;0
02.11.20;19:35:00;1;511;11919;0;2;0;7004;0;0;0;0;3;0;4437;0;0;0;0;4;0;6006;0;0;0;0;5;0;0;0;0;0;0;0;0;6;0;10559;2;0;0;0;0;0;7;0;8248;0;0;0;0;8;0;3932;0;0;0;0;9;0;4452;0;0;0;0
02.11.20;19:30:00;1;462;11879;0;2;0;7004;0;0;0;0;3;0;4437;0;0;0;0;4;0;6006;0;0;0;0;5;0;0;0;0;0;0;0;0;6;0;10559;2;0;0;0;0;0;7;0;8248;0;0;0;0;8;0;3932;0;0;0;0;9;0;4452;0;0;0;0
02.11.20;19:25:00;1;383;11845;0;2;0;7004;0;0;0;0;3;0;4437;0;0;0;0;4;0;6006;0;0;0;0;5;0;0;0;0;0;0;0;0;6;0;10559;2;0;0;0;0;0;7;0;8248;0;0;0;0;8;0;3932;0;0;0;0;9;0;4452;0;0;0;0
02.11.20;19:20:00;1;557;11812;0;2;0;7004;0;0;0;0;3;0;4437;0;0;0;0;4;0;6006;0;0;0;0;5;0;0;0;0;0;0;0;0;6;0;10559;2;0;0;0;0;0;7;0;8248;0;0;0;0;8;0;3932;0;0;0;0;9;0;4452;0;0;0;0
02.11.20;19:15:00;1;568;11773;0;2;0;7004;0;0;0;0;3;0;4437;0;0;0;0;4;0;6006;0;0;0;0;5;0;0;0;0;0;0;0;0;6;0;10559;2;0;0;0;0;0;7;0;8248;0;0;0;0;8;0;3932;0;0;0;0;9;0;4452;0;0;0;0
02.11.20;19:10:00;1;847;11724;0;2;0;7004;0;0;0;0;3;0;4437;0;0;0;0;4;0;6006;0;0;0;0;5;0;0;0;0;0;0;0;0;6;0;10559;2;0;0;0;0;0;7;0;8248;0;0;0;0;8;0;3932;0;0;0;0;9;0;4452;0;0;0;0
02.11.20;19:05:00;1;741;11652;0;2;0;7004;0;0;0;0;3;0;4437;0;0;0;0;4;0;6006;0;0;0;0;5;0;0;0;0;0;0;0;0;6;0;10559;2;0;0;0;0;0;7;0;8248;0;0;0;0;8;0;3932;0;0;0;0;9;0;4452;0;0;0;0
02.11.20;19:00:00;1;369;11594;0;2;0;7004;0;0;0;0;3;0;4437;0;0;0;0;4;0;6006;0;0;0;0;5;0;0;0;0;0;0;0;0;6;0;10559;2;0;0;0;0;0;7;0;8248;0;0;0;0;8;0;3932;0;0;0;0;9;0;4452;0;0;0;0
02.11.20;18:55:00;1;522;11537;0;2;0;7004;0;0;0;0;3;0;4437;0;0;0;0;4;0;6006;0;0;0;0;5;0;0;0;0;0;0;0;0;6;0;10559;2;0;0;0;0;0;7;0;8248;0;0;0;0;8;0;3932;0;0;0;0;9;0;4452;0;0;0;0
02.11.20;18:50:00;1;574;11500;0;2;0;7004;0;0;0;0;3;0;4437;0;0;0;0;4;0;6006;0;0;0;0;5;0;0;0;0;0;0;0;0;6;0;10559;2;0;0;0;0;0;7;0;8248;0;0;0;0;8;0;3932;0;0;0;0;9;0;4452;0;0;0;0
02.11.20;18:45:00;1;499;11456;0;2;0;7004;0;0;0;0;3;0;4437;0;0;0;0;4;0;6006;0;0;0;0;5;0;0;0;0;0;0;0;0;6;0;10559;2;0;0;0;0;0;7;0;8248;0;0;0;0;8;0;3932;0;0;0;0;9;0;4452;0;0;0;0
02.11.20;18:40:00;1;516;11413;0;2;0;7004;0;0;0;0;3;0;4437;0;0;0;0;4;0;6006;0;0;0;0;5;0;0;0;0;0;0;0;0;6;0;10559;2;0;0;0;0;0;7;0;8248;0;0;0;0;8;0;3932;0;0;0;0;9;0;4452;0;0;0;0
02.11.20;18:35:00;1;452;11368;0;2;0;7004;0;0;0;0;3;0;4437;0;0;0;0;4;0;6006;0;0;0;0;5;0;0;0;0;0;0;0;0;6;0;10559;2;0;0;0;0;0;7;0;8248;0;0;0;0;8;0;3932;0;0;0;0;9;0;4452;0;0;0;0
02.11.20;18:30:00;1;621;11333;0;2;0;7004;0;0;0;0;3;0;4437;0;0;0;0;4;0;6006;0;0;0;0;5;0;0;0;0;0;0;0;0;6;0;10559;2;0;0;0;0;0;7;0;8248;0;0;0;0;8;0;3932;0;0;0;0;9;0;4452;0;0;0;0
02.11.20;18:25:00;1;435;11280;0;2;0;7004;0;0;0;0;3;0;4437;0;0;0;0;4;0;6006;0;0;0;0;5;0;0;0;0;0;0;0;0;6;0;10559;2;0;0;0;0;0;7;0;8248;0;0;0;0;8;0;3932;0;0;0;0;9;0;4452;0;0;0;0
02.11.20;18:20:00;1;563;11233;0;2;0;7004;0;0;0;0;3;0;4437;0;0;0;0;4;0;6006;0;0;0;0;5;0;0;0;0;0;0;0;0;6;0;10559;2;0;0;0;0;0;7;0;8248;0;0;0;0;8;0;3932;0;0;0;0;9;0;4452;0;0;0;0
02.11.20;18:15:00;1;990;11185;0;2;0;7004;0;0;0;0;3;0;4437;0;0;0;0;4;0;6006;0;0;0;0;5;0;0;0;0;0;0;0;0;6;0;10559;2;0;0;0;0;0;7;0;8248;0;0;0;0;8;0;3932;0;0;0;0;9;0;4452;0;0;0;0
02.11.20;18:10:00;1;977;11102;0;2;0;7004;0;0;0;0;3;0;4437;0;0;0;0;4;0;6006;0;0;0;0;5;0;0;0;0;0;0;0;0;6;0;10559;2;0;0;0;0;0;7;0;8248;0;0;0;0;8;0;3932;0;0;0;0;9;0;4452;0;0;0;0
02.11.20;18:05:00;1;916;11022;0;2;0;7004;0;0;0;0;3;0;4437;0;0;0;0;4;0;6006;0;0;0;0;5;0;0;0;0;0;0;0;0;6;0;10559;2;0;0;0;0;0;7;0;8248;0;0;0;0;8;0;3932;0;0;0;0;9;0;4452;0;0;0;0
02.11.20;18:00:00;1;874;10946;0;2;0;7004;0;0;0;0;3;0;4437;0;0;0;0;4;0;6006;0;0;0;0;5;0;0;0;0;0;0;0;0;6;0;10559;2;0;0;0;0;0;7;0;8248;0;0;0;0;8;0;3932;0;0;0;0;9;0;4452;0;0;0;0
02.11.20;17:55:00;1;870;10871;0;2;0;7004;0;0;0;0;3;0;4437;0;0;0;0;4;0;6006;0;0;0;0;5;0;0;0;0;0;0;0;0;6;0;10559;2;0;0;0;0;0;7;0;8248;0;0;0;0;8;0;3932;0;0;0;0;9;0;4452;0;0;0;0
02.11.20;17:50:00;1;831;10799;0;2;0;7004;0;0;0;0;3;0;4437;0;0;0;0;4;0;6006;0;0;0;0;5;0;0;0;0;0;0;0;0;6;0;10559;2;0;0;0;0;0;7;0;8248;0;0;0;0;8;0;3932;0;0;0;0;9;0;4452;0;0;0;0
02.11.20;17:45:00;1;942;10728;0;2;0;7004;0;0;0;0;3;0;4437;0;0;0;0;4;0;6006;0;0;0;0;5;0;0;0;0;0;0;0;0;6;0;10559;2;0;0;0;0;0;7;0;8248;0;0;0;0;8;0;3932;0;0;0;0;9;0;4452;0;0;0;0
02.11.20;17:40:00;1;2763;10650;0;2;0;7004;0;0;0;0;3;0;4437;0;0;0;0;4;0;6006;0;0;0;0;5;0;0;0;0;0;0;0;0;6;0;10559;2;0;0;0;0;0;7;0;8248;0;0;0;0;8;0;3932;0;0;0;0;9;0;4452;0;0;0;0
02.11.20;17:35:00;1;2567;10434;0;2;0;7004;0;0;0;0;3;0;4437;0;0;0;0;4;0;6006;0;0;0;0;5;0;0;0;0;0;0;0;0;6;0;10559;2;0;0;0;0;0;7;0;8248;0;0;0;0;8;0;3932;0;0;0;0;9;0;4452;0;0;0;0
02.11.20;17:30:00;1;2564;10199;0;2;0;7004;0;0;0;0;3;0;4437;0;0;0;0;4;0;6006;0;0;0;0;5;0;0;0;0;0;0;0;0;6;0;10559;2;0;0;0;0;0;7;0;8248;0;0;0;0;8;0;3932;0;0;0;0;9;0;4452;0;0;0;0
02.11.20;17:25:00;1;2950;9988;0;2;0;7004;0;0;0;0;3;0;4437;0;0;0;0;4;0;6006;0;0;0;0;5;0;0;0;0;0;0;0;0;6;0;10559;2;0;0;0;0;0;7;0;8248;0;0;0;0;8;0;3932;0;0;0;0;9;0;4452;0;0;0;0
02.11.20;17:20:00;1;2198;9750;0;2;0;7004;0;0;0;0;3;0;4437;0;0;0;0;4;0;6006;0;0;0;0;5;0;0;0;0;0;0;0;0;6;0;10559;2;0;0;0;0;0;7;0;8248;0;0;0;0;8;0;3932;0;0;0;0;9;0;4452;0;0;0;0
02.11.20;17:15:00;1;1802;9559;0;2;0;7004;0;0;0;0;3;0;4437;0;0;0;0;4;0;6006;0;0;0;0;5;0;0;0;0;0;0;0;0;6;0;10559;2;0;0;0;0;0;7;0;8248;0;0;0;0;8;0;3932;0;0;0;0;9;0;4452;0;0;0;0
02.11.20;17:10:00;1;1346;9407;0;2;0;7004;0;0;0;0;3;0;4437;0;0;0;0;4;0;6006;0;0;0;0;5;0;0;0;0;0;0;0;0;6;0;10559;2;0;0;0;0;0;7;0;8248;0;0;0;0;8;0;3932;0;0;0;0;9;0;4452;0;0;0;0
02.11.20;17:05:00;1;3314;9186;0;2;0;7004;0;0;41;3;3;0;4437;0;0;228;17;4;0;6006;0;0;21;8;5;0;0;0;0;0;0;0;0;6;0;10559;2;0;0;0;0;0;7;0;8248;0;0;0;0;8;0;3932;0;0;0;0;9;0;4452;0;0;0;0
02.11.20;17:00:00;1;3431;8909;0;2;0;7004;6;0;281;18;3;0;4437;6;0;325;21;4;0;6006;2;0;93;24;5;0;0;0;0;0;0;0;0;6;0;10559;2;1;0;25;35;4;7;0;8248;0;0;0;0;8;0;3932;0;0;0;0;9;0;4452;0;0;0;0
02.11.20;16:55:00;1;3257;8624;0;2;0;7004;6;0;332;18;3;0;4437;6;0;411;21;4;0;6006;1;0;158;25;5;0;0;0;0;0;0;0;0;6;0;10559;23;4;4;349;308;32;7;0;8248;6;0;307;24;8;0;3932;6;0;307;23;9;0;4452;6;0;323;20
02.11.20;16:50:00;1;3216;8353;0;2;0;7004;6;0;355;19;3;0;4437;6;2;431;21;4;0;6006;1;0;191;25;5;0;0;0;0;0;0;0;0;6;0;10559;23;7;2;298;402;32;7;0;8248;6;0;367;24;8;0;3932;6;0;367;23;9;0;4452;6;0;394;20
02.11.20;16:45:00;1;3144;8083;0;2;0;7004;6;0;369;19;3;1;4437;6;2;449;21;4;0;6006;1;0;203;25;5;0;0;0;0;0;0;0;0;6;0;10559;23;7;2;363;531;33;7;0;8248;6;1;389;25;8;0;3932;6;0;401;23;9;0;4452;6;0;419;21
02.11.20;16:40:00;1;3148;7821;0;2;0;7004;6;0;390;19;3;1;4437;6;5;477;22;4;0;6006;3;0;199;26;5;0;0;0;0;0;0;0;0;6;51;10559;4;12;39;455;435;34;7;1;8248;6;8;416;25;8;0;3932;6;0;433;23;9;2;4452;6;2;471;21
02.11.20;16:35:00;1;3202;7559;0;2;0;7004;6;0;398;20;3;1;4437;6;5;487;22;4;6;6006;3;6;199;26;5;0;0;0;0;0;0;0;0;6;72;10555;4;29;50;455;435;34;7;1;8248;6;13;425;25;8;0;3932;4;1;448;24;9;2;4452;6;3;488;21
02.11.20;16:30:00;1;3120;7294;0;2;52;7004;4;84;355;20;3;3;4437;6;6;506;22;4;19;6006;3;19;198;26;5;0;0;0;0;0;0;0;0;6;105;10548;4;38;55;455;435;34;7;30;8248;6;46;388;26;8;2;3932;3;8;430;24;9;4;4451;4;11;492;21
02.11.20;16:25:00;1;1384;7034;0;2;106;6999;4;138;366;21;3;6;4436;4;11;516;22;4;44;6004;3;46;197;26;5;0;0;0;0;0;0;0;0;6;144;10539;4;57;78;454;435;34;7;67;8245;4;87;368;26;8;4;3932;6;14;447;24;9;5;4451;6;9;519;22
02.11.20;16:20:00;1;638;6931;0;2;95;6991;4;128;355;21;3;50;4436;4;82;405;23;4;56;6000;3;58;197;26;5;0;0;0;0;0;0;0;0;6;160;10527;4;73;87;455;435;34;7;85;8239;4;117;377;26;8;5;3931;6;8;478;24;9;17;4450;6;23;503;22
02.11.20;16:15:00;1;476;6873;0;2;121;6983;4;155;355;21;3;69;4432;4;104;435;23;4;80;5996;3;83;199;26;5;0;0;0;0;0;0;0;0;6;192;10513;4;85;95;455;435;34;7;114;8233;4;149;400;26;8;28;3931;6;47;424;25;9;33;4449;6;47;502;22
02.11.20;16:10:00;1;491;6834;0;2;184;6972;4;217;357;21;3;107;4426;4;142;461;23;4;137;5989;5;142;209;27;5;0;0;0;0;0;0;0;0;6;256;10497;4;119;138;454;435;34;7;183;8223;4;225;408;26;8;71;3929;4;100;431;25;9;97;4446;4;126;480;23
02.11.20;16:05:00;1;638;6793;0;2;216;6957;4;254;363;22;3;131;4417;4;167;464;24;4;171;5978;5;177;213;27;5;0;0;0;0;0;0;0;0;6;295;10475;4;134;143;455;441;34;7;238;8208;4;269;422;26;8;96;3923;4;121;389;25;9;124;4438;4;153;479;23
02.11.20;16:00:00;1;731;6740;0;2;255;6939;4;293;364;22;3;156;4406;4;192;474;24;4;206;5963;5;214;218;27;5;0;0;0;0;0;0;0;0;6;356;10450;4;176;206;454;526;34;7;271;8188;4;312;421;26;8;113;3915;4;147;410;25;9;144;4428;4;177;490;23
02.11.20;15:55:00;1;1260;6679;0;2;273;6918;4;314;370;22;3;167;4393;4;207;457;24;4;224;5946;5;233;220;27;5;0;0;0;0;0;0;0;0;6;403;10420;4;190;214;511;526;34;7;299;8165;4;334;432;26;8;126;3905;4;161;436;25;9;153;4416;4;189;489;24
02.11.20;15:50:00;1;1183;6579;0;2;291;6895;4;327;373;22;3;177;4379;4;215;472;24;4;236;5928;5;245;218;27;5;0;0;0;0;0;0;0;0;6;428;10386;4;216;233;525;523;34;7;308;8140;4;342;439;27;8;128;3895;4;165;437;25;9;161;4403;4;196;491;24
02.11.20;15:45:00;1;1357;6483;0;2;285;6871;4;326;373;23;3;174;4364;4;216;456;24;4;236;5908;5;245;217;27;5;0;0;0;0;0;0;0;0;6;428;10350;4;196;229;518;523;34;7;292;8115;4;339;448;27;8;128;3884;4;162;437;25;9;161;4389;4;194;481;24
02.11.20;15:40:00;1;1207;6384;0;2;302;6847;4;340;369;23;3;184;4350;4;224;469;25;4;248;5888;5;258;219;28;5;0;0;0;0;0;0;0;0;6;460;10314;4;220;242;555;523;34;7;302;8090;4;341;421;27;8;125;3873;4;162;444;25;9;163;4376;4;195;472;24
02.11.20;15:35:00;1;593;6289;0;2;347;6822;4;389;372;23;3;213;4334;4;255;470;25;4;288;5868;5;299;224;28;5;0;0;0;0;0;0;0;0;6;524;10276;4;243;261;541;527;34;7;356;8065;4;398;433;27;8;156;3863;4;189;426;25;9;190;4362;4;221;475;25
02.11.20;15:30:00;1;616;6239;0;2;469;6792;4;516;374;24;3;291;4316;4;337;474;25;4;392;5844;5;409;222;28;5;0;0;0;0;0;0;0;0;6;693;10231;4;343;355;553;529;34;7;499;8035;4;543;437;27;8;231;3850;4;263;437;25;9;261;4346;4;301;491;25
02.11.20;15:25:00;1;601;6188;0;2;599;6754;4;650;378;24;3;375;4293;4;422;479;25;4;507;5811;5;528;229;28;5;0;0;0;0;0;0;0;0;6;858;10173;4;420;437;560;529;34;7;653;7995;4;707;442;27;8;301;3831;4;344;449;25;9;349;4325;4;392;497;25
02.11.20;15:20:00;1;1183;6129;0;2;763;6704;4;817;382;24;3;482;4261;4;533;491;26;4;647;5769;5;674;230;28;5;0;0;0;0;0;0;0;0;6;1058;10099;4;538;559;567;546;34;7;898;7940;4;955;454;27;8;419;3805;4;462;437;25;9;481;4296;4;529;501;25
02.11.20;15:15:00;1;577;6037;0;2;795;6640;4;851;390;25;3;504;4221;4;557;496;26;4;658;5715;5;685;229;28;5;0;0;0;0;0;0;0;0;6;1072;10010;4;542;562;567;543;34;7;937;7866;4;997;458;27;8;443;3771;4;491;441;25;9;502;4256;4;553;503;26
02.11.20;15:10:00;1;985;5979;0;2;756;6574;4;810;387;25;3;477;4179;4;531;482;26;4;630;5660;5;656;231;28;5;0;0;0;0;0;0;0;0;6;1020;9921;4;528;514;564;539;34;7;857;7788;4;922;453;27;8;415;3734;4;454;462;25;9;464;4214;4;513;501;26
02.11.20;15:05:00;1;767;5893;0;2;669;6511;4;722;385;25;3;423;4139;4;474;483;26;4;566;5608;5;589;228;28;5;0;0;0;0;0;0;0;0;6;949;9836;4;485;496;557;536;34;7;762;7716;4;813;452;27;8;358;3699;4;393;445;25;9;401;4176;4;446;496;26
02.11.20;15:00:00;1;788;5830;0;2;714;6455;4;769;384;25;3;452;4104;4;500;477;26;4;602;5560;5;627;230;29;5;0;0;0;0;0;0;0;0;6;1034;9757;4;516;528;561;537;34;7;803;7653;4;859;458;27;8;387;3670;4;423;454;25;9;432;4142;4;477;499;26
02.11.20;14:55:00;1;644;5763;0;2;795;6396;4;853;387;25;3;503;4066;4;556;492;26;4;681;5510;5;709;231;29;5;0;0;0;0;0;0;0;0;6;1151;9670;4;582;591;567;540;34;7;893;7586;4;953;453;28;8;424;3637;4;466;453;25;9;476;4106;4;524;496;26
02.11.20;14:50:00;1;542;5710;0;2;838;6329;4;897;388;26;3;534;4024;4;590;488;26;4;718;5454;5;748;232;29;5;0;0;0;0;0;0;0;0;6;1210;9573;4;623;630;564;540;33;7;954;7511;4;1017;456;28;8;462;3602;4;503;454;25;9;519;4066;4;568;500;26
02.11.20;14:45:00;1;433;5664;0;2;846;6260;4;905;389;26;3;541;3980;4;594;496;26;4;724;5394;5;754;232;29;5;0;0;0;0;0;0;0;0;6;1216;9472;4;607;629;564;537;33;7;938;7432;4;1000;453;28;8;451;3563;4;490;453;25;9;503;4023;4;557;503;26
02.11.20;14:40:00;1;397;5629;0;2;833;6189;4;891;390;26;3;530;3935;4;583;498;26;4;719;5333;5;748;231;29;5;0;0;0;0;0;0;0;0;6;1193;9371;4;594;601;560;542;33;7;912;7353;4;971;456;28;8;438;3526;4;477;447;25;9;493;3981;4;541;494;26
02.11.20;14:35:00;1;2675;5596;0;2;779;6120;4;837;388;26;3;493;3891;4;548;495;27;4;672;5273;5;699;229;29;5;0;0;0;0;0;0;0;0;6;1136;9272;4;591;607;561;541;33;7;865;7278;4;923;449;28;8;412;3489;4;455;458;25;9;474;3940;4;517;493;26
02.11.20;14:30:00;1;3055;5380;0;2;706;6055;4;761;385;27;3;447;3850;4;496;478;27;4;606;5218;5;631;230;29;5;0;0;0;0;0;0;0;0;6;1064;9178;4;541;562;559;538;33;7;809;7205;4;875;452;28;8;389;3455;4;428;455;25;9;441;3901;4;487;489;27
02.11.20;14:25:00;1;2273;5123;0;2;735;5996;4;792;383;27;3;466;3812;4;519;487;27;4;632;5167;5;659;227;29;5;0;0;0;0;0;0;0;0;6;1132;9089;4;583;591;563;536;33;7;862;7138;4;923;449;28;8;412;3423;4;453;436;25;9;464;3864;4;510;492;27
02.11.20;14:20:00;1;2165;4935;0;2;996;5935;4;1062;387;28;3;633;3773;4;691;490;27;4;860;5114;5;896;230;30;5;0;0;0;0;0;0;0;0;6;1498;8993;4;756;754;557;539;33;7;1211;7066;4;1278;453;29;8;582;3388;4;623;452;25;9;644;3825;4;704;504;27
02.11.20;14:15:00;1;2174;4754;0;2;1284;5852;4;1359;389;29;3;821;3721;4;888;492;28;4;1086;5043;5;1131;231;30;5;0;0;0;0;0;0;0;0;6;1842;8865;4;927;921;563;541;33;7;1576;6966;4;1663;450;28;8;761;3340;4;814;449;25;9;839;3772;4;905;494;28
02.11.20;14:10:00;1;1585;4573;0;2;2074;5745;4;2186;389;29;3;1351;3652;4;1435;499;28;4;1607;4952;5;1674;239;30;5;0;0;0;0;0;0;0;0;6;2801;8710;4;1448;1415;569;547;33;7;2688;6834;4;2816;461;28;8;1323;3276;4;1395;451;25;9;1491;3702;4;1585;502;28
02.11.20;14:05:00;1;1916;4428;0;2;2027;5578;4;2129;387;28;3;1330;3544;4;1415;512;27;4;1635;4823;5;1703;241;29;5;0;0;0;0;0;0;0;0;6;2755;8479;4;1428;1398;575;545;32;7;2446;6621;4;2571;457;28;8;1225;3171;4;1293;464;25;9;1382;3584;4;1467;498;27
02.11.20;14:00:00;1;634;4270;0;2;1362;5414;4;1439;389;28;3;874;3437;4;942;495;27;4;1182;4689;5;1231;231;29;5;0;0;0;0;0;0;0;0;6;1996;8261;4;1028;1011;570;546;32;7;1659;6423;4;1752;462;28;8;804;3072;4;865;447;25;9;903;3472;4;968;505;27
02.11.20;13:55:00;1;359;4213;0;2;1322;5301;4;1394;389;28;3;845;3364;4;910;502;27;4;1147;4591;5;1195;234;29;5;0;0;0;0;0;0;0;0;6;1945;8095;4;1000;982;568;548;32;7;1594;6285;4;1669;460;28;8;770;3005;4;822;454;25;9;853;3397;4;918;512;27
02.11.20;13:50:00;1;262;4183;0;2;1356;5190;4;1440;392;28;3;874;3293;4;942;498;27;4;1173;4495;5;1222;233;29;5;0;0;0;0;0;0;0;0;6;1973;7932;4;1000;995;566;549;32;7;1667;6152;4;1751;460;28;8;808;2941;4;861;450;25;9;895;3326;4;961;507;27
02.11.20;13:45:00;1;259;4162;0;2;1371;5077;4;1448;390;28;3;876;3220;4;945;502;27;4;1169;4397;5;1217;233;29;5;0;0;0;0;0;0;0;0;6;1942;7768;4;986;968;573;543;32;7;1634;6013;4;1718;461;28;8;795;2873;4;846;454;25;9;887;3251;4;954;501;27